Weather History for KDAW - February, 2012

Change the Weather History Date:

Friday, February 3, 2012

  Actual Average (KSFM) Record (KSFM)
Temperature  
Mean Temperature 28 °F -  
Max Temperature 34 °F 31 °F 48 °F (1999)
Min Temperature 21 °F 11 °F -7 °F (2002)
Degree Days  
Heating Degree Days 38    
Moisture  
Dew Point 13 °F    
Average Humidity 55    
Maximum Humidity 74    
Minimum Humidity 32    
Precipitation  
Precipitation 0.00 in - - ()
Sea Level Pressure  
Sea Level Pressure 30.28 in    
Wind  
Wind Speed 5 mph (NW)    
Max Wind Speed 18 mph    
Max Gust Speed 25 mph    
Visibility 10 miles    
Events      
Averages and records for this station are not official NWS values.
T = Trace of Precipitation, MM = Missing Value Source: NWS Daily Summary

Daily Weather History Graph

Daily Weather History Graph

Search for Another Location

Airport or City:

Trip Planner

Search our weather history database for the weather conditions in past years. The results will help you decide how hot, cold, wet, or windy it might be!

Date:

Astronomy

Feb. 03, 2012 Rise Set
Actual Time 6:57 AM EST 4:57 PM EST
Civil Twilight 6:27 AM EST 5:27 PM EST
Nautical Twilight 5:53 AM EST 6:01 PM EST
Astronomical Twilight 5:20 AM EST 6:35 PM EST
Moon 12:52 PM EST (2/3) 3:34 AM EST (2/3)
Length of Visible Light 11h 00m
Length of Day
9h 59m
Waxing Gibbous, 81% of the Moon is Illuminated
Feb 3
Waxing Gibbous
Feb 7
Full
Feb 14
Last Quarter
Feb 21
New
Feb 29
First Quarter

Hourly Weather History & Observations

Time (EST) Temp. Windchill Dew Point Humidity Pressure Visibility Wind Dir Wind Speed Gust Speed Precip Events Conditions
12:51 AM 26.1 °F 21.9 °F 16.0 °F 66% 30.21 in 10.0 mi NNE 3.5 mph - N/A   Overcast
1:51 AM 26.1 °F 21.9 °F 16.0 °F 66% 30.22 in 10.0 mi North 3.5 mph - N/A   Overcast
3:51 AM 26.1 °F 16.2 °F 16.0 °F 66% 30.25 in 10.0 mi NW 10.4 mph - N/A   Overcast
4:36 AM 23.0 °F 14.7 °F 15.8 °F 74% 30.25 in 10.0 mi NW 6.9 mph - N/A   Scattered Clouds
4:51 AM 21.9 °F 14.5 °F 14.0 °F 72% 30.27 in 10.0 mi NW 5.8 mph - N/A   Clear
5:51 AM 21.0 °F 12.4 °F 12.9 °F 71% 30.30 in 10.0 mi NW 6.9 mph - N/A   Clear
6:51 AM 21.0 °F 16.2 °F 12.0 °F 68% 30.32 in 10.0 mi WNW 3.5 mph - N/A   Clear
8:51 AM 23.0 °F 15.8 °F 10.9 °F 60% 30.35 in 10.0 mi WNW 5.8 mph - N/A   Clear
9:51 AM 26.1 °F 18.4 °F 12.0 °F 55% 30.35 in 10.0 mi WNW 6.9 mph - N/A   Clear
10:51 AM 28.9 °F 20.4 °F 10.9 °F 47% 30.34 in 10.0 mi NW 9.2 mph - N/A   Clear
11:51 AM 32.0 °F 28.7 °F 10.9 °F 42% 30.31 in 10.0 mi Variable 3.5 mph - N/A   Clear
12:51 PM 34.0 °F 24.2 °F 9.0 °F 35% 30.29 in 10.0 mi NW 15.0 mph 19.6 mph N/A   Scattered Clouds
1:51 PM 33.1 °F 21.9 °F 6.1 °F 32% 30.27 in 10.0 mi NW 18.4 mph 25.3 mph N/A   Clear
2:51 PM 34.0 °F 26.6 °F 10.0 °F 37% 30.27 in 10.0 mi NW 9.2 mph - N/A   Clear
3:51 PM 33.1 °F 25.5 °F 10.9 °F 40% 30.28 in 10.0 mi NW 9.2 mph - N/A   Clear
4:51 PM 32.0 °F - 12.0 °F 44% 30.27 in 10.0 mi Calm Calm - N/A   Clear
5:51 PM 30.9 °F - 14.0 °F 50% 30.29 in 10.0 mi Calm Calm - N/A   Clear
6:51 PM 30.0 °F 25.2 °F 14.0 °F 51% 30.28 in 10.0 mi Variable 4.6 mph - N/A   Clear
7:51 PM 30.0 °F - 15.1 °F 54% 30.27 in 10.0 mi Calm Calm - N/A   Scattered Clouds
8:51 PM 30.0 °F 26.5 °F 15.1 °F 54% 30.27 in 10.0 mi Variable 3.5 mph - N/A   Overcast
9:51 PM 30.0 °F - 16.0 °F 56% 30.25 in 10.0 mi Calm Calm - N/A   Overcast
10:51 PM 30.0 °F 26.5 °F 15.1 °F 54% 30.23 in 10.0 mi Variable 3.5 mph - N/A   Overcast
11:51 PM 30.0 °F - 15.1 °F 54% 30.23 in 10.0 mi Calm Calm - N/A   Overcast